Elmira, NY

9:44 AM EST on February 09, 2016 (GMT -0500)
Elmira-Corning Regional

Weather History for KELM - October, 2013

Change the Weather History Date:

Friday, October 18, 2013

  Actual Average Record
Temperature  
Mean Temperature 49 °F -  
Max Temperature 60 °F 59 °F 81 °F (1947)
Min Temperature 37 °F 36 °F 23 °F (1972)
Degree Days  
Heating Degree Days 16    
Moisture  
Dew Point 41 °F    
Average Humidity 69    
Maximum Humidity 89    
Minimum Humidity 44    
Precipitation  
Precipitation 0.00 in - - ()
Sea Level Pressure  
Sea Level Pressure 29.87 in    
Wind  
Wind Speed 8 mph (WSW)    
Max Wind Speed 18 mph    
Max Gust Speed 26 mph    
Visibility 10 miles    
Events      
Averages and records for this station are not official NWS values.
T = Trace of Precipitation, MM = Missing Value Source: NWS Daily Summary

Daily Weather History Graph

Daily Weather History Graph

Search for Another Location

Airport or City:

Trip Planner

Search our weather history database for the weather conditions in past years. The results will help you decide how hot, cold, wet, or windy it might be!

Date:

Astronomy

Oct. 18, 2013 Rise Set
Actual Time 7:23 AM EDT 6:20 PM EDT
Civil Twilight 6:55 AM EDT 6:49 PM EDT
Nautical Twilight 6:23 AM EDT 7:21 PM EDT
Astronomical Twilight 5:50 AM EDT 7:53 PM EDT
Moon 6:08 PM EDT (10/18) 6:57 AM EDT (10/18)
Length of Visible Light 11h 53m
Length of Day
10h 56m
Full, 100% of the Moon is Illuminated
Oct 18
Full
Oct 18
Full
Oct 26
Last Quarter
Nov 3
New
Nov 10
First Quarter

Hourly Weather History & Observations

Time (EDT) Temp. Dew Point Humidity Pressure Visibility Wind Dir Wind Speed Gust Speed Precip Events Conditions
12:53 AM 54.0 °F 50.0 °F 86% 29.73 in 10.0 mi WSW 3.5 mph - N/A   Overcast
1:53 AM 53.1 °F 45.0 °F 74% 29.76 in 10.0 mi West 10.4 mph - N/A   Overcast
2:20 AM 53.6 °F 46.4 °F 77% 29.77 in 10.0 mi WSW 8.1 mph - N/A   Overcast
2:41 AM 53.6 °F 44.6 °F 72% 29.77 in 10.0 mi WSW 12.7 mph - N/A   Overcast
2:53 AM 53.1 °F 44.1 °F 71% 29.76 in 10.0 mi WSW 11.5 mph - N/A   Overcast
3:53 AM 51.1 °F 43.0 °F 74% 29.77 in 10.0 mi West 11.5 mph - N/A   Mostly Cloudy
4:53 AM 50.0 °F 42.1 °F 74% 29.80 in 10.0 mi WSW 8.1 mph - N/A   Mostly Cloudy
5:53 AM 51.1 °F 41.0 °F 68% 29.81 in 10.0 mi West 6.9 mph - N/A   Overcast
6:53 AM 51.1 °F 42.1 °F 71% 29.82 in 10.0 mi SW 6.9 mph - N/A   Overcast
7:53 AM 51.1 °F 42.1 °F 71% 29.84 in 10.0 mi WSW 6.9 mph - N/A   Overcast
8:53 AM 53.1 °F 42.1 °F 66% 29.87 in 10.0 mi WSW 8.1 mph - N/A   Partly Cloudy
9:53 AM 54.0 °F 39.9 °F 59% 29.89 in 10.0 mi West 9.2 mph - N/A   Partly Cloudy
10:53 AM 55.0 °F 39.9 °F 57% 29.91 in 10.0 mi West 9.2 mph 20.7 mph N/A   Overcast
11:53 AM 57.9 °F 39.9 °F 51% 29.91 in 10.0 mi WSW 11.5 mph - N/A   Scattered Clouds
12:53 PM 57.0 °F 39.9 °F 53% 29.91 in 10.0 mi West 15.0 mph 19.6 mph N/A   Overcast
1:53 PM 57.0 °F 41.0 °F 55% 29.91 in 10.0 mi West 11.5 mph - N/A   Overcast
2:53 PM 57.0 °F 42.1 °F 57% 29.91 in 10.0 mi West 12.7 mph - N/A   Overcast
3:53 PM 57.9 °F 39.0 °F 49% 29.91 in 10.0 mi West 11.5 mph 18.4 mph N/A   Overcast
4:53 PM 59.0 °F 37.0 °F 44% 29.90 in 10.0 mi WSW 18.4 mph 26.5 mph N/A   Mostly Cloudy
5:53 PM 57.0 °F 37.0 °F 47% 29.91 in 10.0 mi West 8.1 mph - N/A   Partly Cloudy
6:53 PM 48.0 °F 39.0 °F 71% 29.93 in 10.0 mi Calm Calm - N/A   Clear
7:53 PM 43.0 °F 37.9 °F 82% 29.94 in 10.0 mi Calm Calm - N/A   Clear
8:53 PM 39.9 °F 37.0 °F 89% 29.95 in 10.0 mi Calm Calm - N/A   Clear
9:53 PM 41.0 °F 37.9 °F 89% 29.97 in 10.0 mi Calm Calm - N/A   Clear
10:53 PM 39.0 °F 36.0 °F 89% 29.97 in 8.0 mi Calm Calm - N/A   Clear
11:53 PM 37.9 °F 35.1 °F 89% 29.97 in 10.0 mi Calm Calm - N/A   Clear